Location: Oso Ridge
(35.0450°N, 108.0864°W)
Time: 10:41:12
(UTC-06:00)

Amateur Radio Satellites - All Passes

Search period start: 30 October 2014 10:11
Search period end: 31 October 2014 10:11
Location: Oso Ridge, 35.0450°N, 108.0864°W

Satellite Date Start Highest point End Downlink Frequencies (MHz)
Time Altitude Azimuth
KITSAT 1 30 Oct 10:17:43 10:24:19 29° 105° (ESE) 10:30:56 435.175 FM
UKube-1 30 Oct 10:48:47 10:53:08 70° 102° (ESE) 10:57:28 145.840 MHz, 145.915 MHz
ZACube-1 30 Oct 10:55:49 10:59:31 30° 97° (E) 11:03:10 437.345 MHz
ISS 30 Oct 10:59:58 11:03:12 51° 321° (NW) 11:06:27 145.800 FM
SO-50 30 Oct 11:22:05 11:26:23 49° 115° (ESE) 11:30:48 436.795 FM
Sapphire 30 Oct 11:24:14 11:28:10 20° 52° (NE) 11:32:04 437.095 MHz 1200 baud AX-25 AFSK
Oscar 11 30 Oct 11:25:03 11:29:08 43° 286° (WNW) 11:33:12 145.825 FM, Beacon 2401.500 USB
HO-68 30 Oct 11:32:00 11:38:03 30° 296° (WNW) 11:44:05 435.675 MHz FM
FUNcube-1 30 Oct 11:38:38 11:42:49 77° 283° (WNW) 11:46:56 145.950 - 145.970 MHz USB
PCSat 30 Oct 11:45:26 11:50:16 32° 56° (NE) 11:55:03 145.825 MHz
KITSAT 1 30 Oct 12:11:20 12:19:13 56° 302° (WNW) 12:27:08 435.175 FM
UOSAT-12 30 Oct 12:14:18 12:16:46 14° 108° (ESE) 12:19:15 437.025 FM, 437.400 FM
ZACube-1 30 Oct 12:32:51 12:35:40 18° 292° (WNW) 12:38:27 437.345 MHz
Oscar 19 30 Oct 12:54:22 12:57:50 19° 66° (ENE) 13:01:18 437.125 CW, 437.150 USB
SO-50 30 Oct 13:04:15 13:07:13 17° 312° (NW) 13:10:15 436.795 FM
Sapphire 30 Oct 13:06:36 13:11:53 54° 248° (WSW) 13:17:08 437.095 MHz 1200 baud AX-25 AFSK
AO-27 30 Oct 13:28:18 13:31:25 16° 64° (ENE) 13:34:33 436.795 MHz FM
PCSat 30 Oct 13:28:53 13:33:34 30° 252° (WSW) 13:38:13 145.825 MHz
Oscar 16 30 Oct 13:39:24 13:44:25 54° 73° (ENE) 13:49:25 437.025 USB, Beacon 2401.1428
UOSAT-12 30 Oct 13:51:55 13:56:24 52° 303° (WNW) 14:01:00 437.025 FM, 437.400 FM
JAS-1B 30 Oct 14:04:41 14:10:34 80° 75° (ENE) 14:16:15 435.800 - 435.900 CW/SSB
Uribyol 2 30 Oct 14:10:29 14:15:24 44° 72° (ENE) 14:20:21 436.500 FM
KITSAT 1 30 Oct 14:13:16 14:16:35 13° 325° (NW) 14:19:54 435.175 FM
ITAMSAT 1 30 Oct 14:18:04 14:23:04 49° 72° (ENE) 14:28:06 435.822 SSB
AO-Echo 30 Oct 14:22:56 14:27:50 72° 75° (ENE) 14:32:56 ?
Oscar 19 30 Oct 14:31:53 14:36:47 46° 260° (W) 14:41:43 437.125 CW, 437.150 USB
Saudisat 1A 30 Oct 14:38:16 14:41:27 19° 50° (NE) 14:44:37 436.775 MHz
AO-7 30 Oct 15:00:05 15:05:44 21° 56° (NE) 15:11:23 29.400 - 29.500 MHz
AO-27 30 Oct 15:05:20 15:10:25 55° 259° (W) 15:15:34 436.795 MHz FM
Gurwin Techsat 1B 30 Oct 15:14:49 15:20:07 89° 256° (WSW) 15:25:28 435.225 FM
Oscar 16 30 Oct 15:21:10 15:24:02 15° 267° (W) 15:26:53 437.025 USB, Beacon 2401.1428
TMSAT-1 30 Oct 15:21:52 15:27:10 78° 75° (ENE) 15:32:29 436.925 FM
Uribyol 2 30 Oct 15:51:25 15:55:01 19° 266° (W) 15:58:39 436.500 FM
ITAMSAT 1 30 Oct 15:59:30 16:02:47 17° 267° (W) 16:06:05 435.822 SSB
AO-Echo 30 Oct 16:06:42 16:07:07 10° 270° (W) 16:07:31 ?
Uosat F 30 Oct 16:14:03 16:18:30 33° 70° (ENE) 16:22:59 435.120 FM
Saudisat 1A 30 Oct 16:17:00 16:21:09 40° 246° (WSW) 16:25:16 436.775 MHz
AO-7 30 Oct 16:49:18 16:57:34 80° 254° (WSW) 17:05:54 29.400 - 29.500 MHz
TMSAT-1 30 Oct 17:07:25 17:07:35 10° 270° (W) 17:07:45 436.925 FM
ISS 30 Oct 17:31:15 17:34:25 39° 38° (NE) 17:37:34 145.800 FM
JAS-2 30 Oct 17:32:06 17:38:00 53° 71° (ENE) 17:44:43 435.800 - 435.900 CW/SSB, 435.910 FM
Uosat F 30 Oct 17:53:17 17:57:16 24° 264° (W) 18:01:18 435.120 FM
Hamsat 30 Oct 18:02:10 18:06:15 55° 75° (ENE) 18:10:21 145.90 MHz
OPAL 30 Oct 18:21:09 18:26:01 57° 103° (ESE) 18:30:52 ?
AO-7 30 Oct 18:48:25 18:51:22 12° 269° (W) 18:54:19 29.400 - 29.500 MHz
AO-40 30 Oct 18:55:26 01:21:04 50° 161° (SSE) 02:59:39 Beacon 2401.320
ISS 30 Oct 19:08:42 19:10:51 16° 232° (SW) 19:13:00 145.800 FM
JAS-2 30 Oct 19:18:55 19:23:30 22° 270° (W) 19:28:30 435.800 - 435.900 CW/SSB, 435.910 FM
SO-67 30 Oct 19:28:31 19:31:55 68° 77° (ENE) 19:35:20 435.3500 MHz FM
Oscar 10/S400 30 Oct 19:29:52 19:57:48 67° 193° (SSW) 05:47:08 145.825 - 145.975 CW/USB, Beacon 145.810 USB
SO-50 30 Oct 19:57:06 20:00:52 22° 50° (NE) 20:04:38 436.795 FM
OPAL 30 Oct 20:01:46 20:04:24 15° 298° (WNW) 20:07:01 ?
KITSAT 1 30 Oct 20:08:08 20:15:44 43° 54° (NE) 20:23:17 435.175 FM
HO-68 30 Oct 20:09:54 20:15:30 26° 62° (ENE) 20:21:07 435.675 MHz FM
STRAND 1 30 Oct 20:16:05 20:21:15 77° 285° (WNW) 20:26:21 ?
RS-15 30 Oct 20:21:49 20:31:15 34° 106° (ESE) 20:40:32 29.354 - 29.394 USB, Beacon 29.352 USB
SO-50 30 Oct 21:36:59 21:41:34 42° 246° (WSW) 21:46:09 436.795 FM
UKube-1 30 Oct 21:41:02 21:45:04 39° 72° (ENE) 21:49:07 145.840 MHz, 145.915 MHz
ZACube-1 30 Oct 21:49:37 21:52:48 19° 69° (ENE) 21:55:57 437.345 MHz
HO-68 30 Oct 21:55:43 22:02:42 56° 258° (WSW) 22:09:45 435.675 MHz FM
MaSat-1 30 Oct 22:01:16 22:04:53 32° 109° (ESE) 22:08:14 437.345 MHz
KITSAT 1 30 Oct 22:03:41 22:10:59 39° 252° (WSW) 22:18:16 435.175 FM
Oscar 11 30 Oct 22:16:20 22:20:39 86° 258° (WSW) 22:24:59 145.825 FM, Beacon 2401.500 USB
UOSAT-12 30 Oct 22:24:32 22:29:10 54° 58° (ENE) 22:33:41 437.025 FM, 437.400 FM
FUNcube-1 30 Oct 22:31:12 22:35:39 56° 75° (ENE) 22:40:02 145.950 - 145.970 MHz USB
RS-15 30 Oct 22:32:06 22:42:55 59° 305° (NW) 22:53:42 29.354 - 29.394 USB, Beacon 29.352 USB
UKube-1 30 Oct 23:18:50 23:21:22 15° 266° (W) 23:23:54 145.840 MHz, 145.915 MHz
ZACube-1 30 Oct 23:24:46 23:28:55 34° 262° (W) 23:33:01 437.345 MHz
MaSat-1 30 Oct 23:37:58 23:40:18 15° 300° (WNW) 23:42:31 437.345 MHz
UOSAT-12 31 Oct 00:06:27 00:08:47 14° 253° (WSW) 00:11:05 437.025 FM, 437.400 FM
FUNcube-1 31 Oct 00:10:54 00:12:16 11° 268° (W) 00:13:37 145.950 - 145.970 MHz USB
RS-15 31 Oct 00:51:31 00:58:15 18° 333° (NNW) 01:05:03 29.354 - 29.394 USB, Beacon 29.352 USB
JAS-1B 31 Oct 01:50:17 01:56:46 31° 98° (E) 02:04:10 435.800 - 435.900 CW/SSB
Oscar 16 31 Oct 01:55:01 01:59:10 24° 96° (E) 02:03:17 437.025 USB, Beacon 2401.1428
Sapphire 31 Oct 02:02:23 02:07:05 32° 108° (ESE) 02:11:50 437.095 MHz 1200 baud AX-25 AFSK
PCSat 31 Oct 02:23:27 02:28:42 55° 112° (ESE) 02:33:59 145.825 MHz
Uribyol 2 31 Oct 02:27:22 02:31:10 20° 95° (E) 02:34:57 436.500 FM
AO-Echo 31 Oct 02:33:48 02:38:31 32° 97° (E) 02:43:09 ?
ITAMSAT 1 31 Oct 02:34:59 02:39:03 23° 95° (E) 02:43:06 435.822 SSB
Oscar 19 31 Oct 02:46:29 02:51:37 82° 103° (ESE) 02:56:44 437.125 CW, 437.150 USB
RS-15 31 Oct 03:13:31 03:17:33 12° 11° (NNE) 03:21:36 29.354 - 29.394 USB, Beacon 29.352 USB
AO-27 31 Oct 03:21:36 03:26:49 71° 102° (ESE) 03:32:00 436.795 MHz FM
Oscar 16 31 Oct 03:33:57 03:38:29 33° 290° (WNW) 03:43:01 437.025 USB, Beacon 2401.1428
Gurwin Techsat 1B 31 Oct 03:34:32 03:39:40 48° 100° (E) 03:44:46 435.225 FM
JAS-1B 31 Oct 03:40:21 03:47:18 50° 289° (WNW) 03:55:31 435.800 - 435.900 CW/SSB
TMSAT-1 31 Oct 03:41:19 03:46:18 40° 99° (E) 03:51:15 436.925 FM
Sapphire 31 Oct 03:45:41 03:50:26 31° 304° (NW) 03:55:12 437.095 MHz 1200 baud AX-25 AFSK
Uribyol 2 31 Oct 04:05:55 04:10:44 40° 289° (WNW) 04:15:32 436.500 FM
PCSat 31 Oct 04:08:38 04:12:27 19° 309° (NW) 04:16:17 145.825 MHz
AO-Echo 31 Oct 04:12:39 04:17:06 28° 291° (WNW) 04:21:30 ?
ITAMSAT 1 31 Oct 04:13:51 04:18:35 36° 290° (WNW) 04:23:17 435.822 SSB
Uosat F 31 Oct 04:26:44 04:28:58 13° 92° (E) 04:31:12 435.120 FM
Oscar 19 31 Oct 04:29:28 04:30:13 10° 298° (WNW) 04:30:58 437.125 CW, 437.150 USB
PANSAT 31 Oct 04:45:13 04:48:16 23° 168° (SSE) 04:51:20 not established
AO-7 31 Oct 04:54:48 05:02:38 43° 101° (E) 05:10:26 29.400 - 29.500 MHz
AO-27 31 Oct 05:03:28 05:05:40 13° 297° (WNW) 05:07:51 436.795 MHz FM
Gurwin Techsat 1B 31 Oct 05:15:37 05:19:13 19° 294° (WNW) 05:22:49 435.225 FM
TMSAT-1 31 Oct 05:21:56 05:25:54 22° 293° (WNW) 05:29:51 436.925 FM
RS-15 31 Oct 05:25:10 05:35:01 34° 45° (NE) 05:45:08 29.354 - 29.394 USB, Beacon 29.352 USB
OPAL 31 Oct 05:32:46 05:37:52 73° 73° (ENE) 05:42:56 ?
Hamsat 31 Oct 05:52:48 05:54:37 12° 92° (E) 05:56:25 145.90 MHz
STRAND 1 31 Oct 05:53:31 05:55:17 12° 62° (ENE) 05:57:03 ?
Uosat F 31 Oct 06:03:07 06:08:05 59° 286° (WNW) 06:13:01 435.120 FM
Saudisat 1A 31 Oct 06:19:48 06:24:09 72° 300° (WNW) 06:28:33 436.775 MHz
PANSAT 31 Oct 06:24:35 06:28:00 30° 181° (S) 06:31:23 not established
JAS-2 31 Oct 06:29:09 06:37:01 69° 101° (E) 06:44:29 435.800 - 435.900 CW/SSB, 435.910 FM
AO-7 31 Oct 06:47:45 06:55:13 39° 297° (WNW) 07:02:41 29.400 - 29.500 MHz
OPAL 31 Oct 07:16:05 07:17:09 11° 266° (W) 07:18:12 ?
Hamsat 31 Oct 07:26:43 07:30:43 43° 286° (WNW) 07:34:45 145.90 MHz
STRAND 1 31 Oct 07:28:39 07:33:46 75° 258° (WSW) 07:38:56 ?
RS-15 31 Oct 07:37:03 07:48:12 70° 246° (WSW) 07:59:53 29.354 - 29.394 USB, Beacon 29.352 USB
MaSat-1 31 Oct 07:49:22 07:50:58 16° 60° (ENE) 07:52:31 437.345 MHz
PANSAT 31 Oct 08:04:45 08:07:42 21° 193° (SSW) 08:10:38 not established
JAS-2 31 Oct 08:15:22 08:21:14 24° 298° (WNW) 08:27:00 435.800 - 435.900 CW/SSB, 435.910 FM
SO-67 31 Oct 08:27:35 08:30:59 60° 283° (WNW) 08:34:22 435.3500 MHz FM
HO-68 31 Oct 09:27:14 09:33:41 35° 98° (E) 09:40:04 435.675 MHz FM
RS-15 31 Oct 09:55:03 09:58:37 12° 263° (W) 10:02:14 29.354 - 29.394 USB, Beacon 29.352 USB
